Regional Weather Roundup
Issued by NWS Cleveland, OH

Home | Current Version | Previous Version | Graphics & Text | Print | Product List | Glossary On
Versions: 1 2 3 4 5 6 7 8 9 10 11 12 13 14 15 16 17 18 19 20 21 22 23 24 25 26 27 28 29 30 31 32 33 34 35 36 37 38 39 40 41 42 43 44 45 46 47 48 49 50
000
ASUS41 KCLE 140800
RWRCLE
OHIO REGIONAL WEATHER ROUNDUP
NATIONAL WEATHER SERVICE WILMINGTON, OH
400 AM EDT MON JUL 14 2014

NOTE: "FAIR" INDICATES FEW OR NO CLOUDS BELOW 12,000 FEET WITH NO
SIGNIFICANT WEATHER AND/OR OBSTRUCTIONS TO VISIBILITY.

OHZ001>008-015>018-024>027-034-035-043-044-140900-
   NORTHWEST OHIO

CITY           SKY/WX    TMP DP  RH WIND       PRES   REMARKS
DEFIANCE       CLOUDY    66  63  90 S3        29.88S
FINDLAY        PTCLDY    65  63  93 S3        29.88S
TOLEDO EXPRESS PTCLDY    65  62  90 CALM      29.86F
TOLEDO METCALF PTCLDY    66  61  84 CALM      29.87F
LIMA           MOCLDY    70  66  87 SW5       29.90S
$$

OHZ009>014-019>023-028>033-038-089-140900-
   NORTHEAST OHIO

CITY           SKY/WX    TMP DP  RH WIND       PRES   REMARKS
CLE-HOPKINS    PTCLDY    67  65  93 CALM      29.90F
CLE-LAKEFRONT  CLEAR     72  66  81 SE7       29.86F
CUY CO. ARPT   NOT AVBL
LORAIN-ELYRIA  PTCLDY    69  64  84 S3        29.89F
ASHTABULA      PTCLDY    62  60  93 SE3       29.90F
AKRON-CANTON   CLOUDY    70  68  93 SW7       29.91F FOG
WOOSTER        NOT AVBL
MANSFIELD      PTCLDY    65  64  97 S3        29.92F
YOUNGSTOWN     MOCLDY    68  67  96 S5        29.91F
$$

OHZ042-051>053-060>062-070>072-077>081-140900-
  SOUTHWEST OHIO

CITY           SKY/WX    TMP DP  RH WIND       PRES   REMARKS
CINC-COVINGTON CLOUDY    70  69  97 S7        29.92
CINC-LUNKEN    MOCLDY    70  70 100 S5        29.92S FOG
HAMILTON       CLOUDY    72  71  97 S3        29.92R FOG
DAYTON         NOT AVBL
WRIGHT-PAT AFB NOT AVBL
DAYTON GENERAL MOCLDY    71  71 100 S7        29.92R FOG
WILMINGTON     MOCLDY    71  69  93 SW6       29.92S FOG
$$

OHZ036-037-039>041-045>050-054>059-063>069-073>076-082>088-140900-
  CENTRAL AND SOUTHEAST OHIO

CITY           SKY/WX    TMP DP  RH WIND       PRES   REMARKS
COLUMBUS       MOCLDY    72  68  87 S3        29.90F FOG
OSU AIRPORT    CLOUDY    70  69  97 S3        29.90F
BOLTON FIELD   NOT AVBL
RICKENBACK AFB NOT AVBL
NEWARK         FOG       68  66  93 CALM      29.91S VSB 1/2
MARION         PTCLDY    68  66  93 S5        29.90F FOG
LANCASTER      CLOUDY    72  70  93 CALM      29.92S
ZANESVILLE     CLOUDY    71  69  93 S5        29.91F FOG
NEW PHILLY     CLOUDY    72  70  93 CALM      29.92F
$$


USA.gov is the U.S. government's official web portal to all federal, state and local government web resources and services.